This demonstration page uses our WeatherBlox Daily Observations layout. Learn more.

Hourly Observations for December 16, 2016

Temp ( °F °C ) Dew Point ( °F °C ) Humidity (%) Winds ( mph kmh ) Pressure ( in mb ) Visibility ( mi km ) Precip ( " mm )
12:15 am 00:15 Clear 22 -5.7 6 -14.2 52 52 SSE 12 19 29.94 1014 10 16.0934 0 0
12:35 am 00:35 Clear 21 -6.1 6 -14.3 53 53 S 13 20 29.94 1014 10 16.0934 0 0
12:55 am 00:55 Clear 21 -6.1 7 -14 54 54 SSE 13 20 29.94 1014 10 16.0934 0 0
1:15 am 01:15 Clear 21 -6.3 7 -13.7 56 56 SSE 12 19 29.94 1014 10 16.0934 0 0
1:35 am 01:35 Clear 20 -6.5 8 -13.4 58 58 SSE 10 17 29.94 1014 10 16.0934 0 0
1:55 am 01:55 Clear 20 -6.6 9 -13 61 61 SSE 12 19 29.91 1013 10 16.0934 0 0
2:15 am 02:15 Clear 20 -6.5 10 -12.5 63 63 SSE 9 15 29.91 1013 10 16.0934 0 0
2:35 am 02:35 Clear 20 -6.8 10 -12.3 65 65 SSE 9 15 29.91 1013 10 16.0934 0 0
2:55 am 02:55 Clear 19 -7.1 10 -12.1 68 68 SSE 8 13 29.91 1013 10 16.0934 0 0
3:15 am 03:15 Mostly Cloudy 19 -7.1 10 -12 68 68 SSE 9 15 29.91 1013 10 16.0934 0 0
3:35 am 03:35 Cloudy 20 -6.5 12 -11.2 70 70 SSE 12 19 29.88 1012 10 16.0934 0 0
3:55 am 03:55 Cloudy 21 -6 13 -10.3 72 72 S 12 19 29.88 1012 10 16.0934 0 0
4:15 am 04:15 Cloudy 22 -5.6 15 -9.6 74 74 S 7 11 29.85 1011 10 16.0934 0 0
4:35 am 04:35 Cloudy 22 -5.5 15 -9.2 75 75 SSE 6 9 29.85 1011 10 16.0934 0 0
4:55 am 04:55 Cloudy 23 -5.2 16 -8.7 77 77 SE 3 6 29.88 1012 10 16.0934 0 0
5:15 am 05:15 Cloudy 23 -5.2 17 -8.5 78 78 SE 6 9 29.85 1011 10 16.0934 0 0
5:35 am 05:35 Cloudy 23 -5.1 17 -8.1 80 80 SE 6 9 29.85 1011 10 16.0934 0 0
5:55 am 05:55 Cloudy 23 -4.9 19 -7.1 85 85 SE 7 11 29.85 1011 7 11.26538 0 0
6:15 am 06:15 Cloudy with Mist and Fog 23 -4.8 21 -6.3 89 89 SE 6 9 29.85 1011 5 8.0467 0 0
6:35 am 06:35 Cloudy with Mist and Fog 23 -4.8 21 -6.1 91 91 ESE 5 7 29.85 1011 5 8.0467 0 0
6:55 am 06:55 Cloudy with Mist and Fog 23 -4.8 21 -5.9 92 92 E 6 9 29.83 1010 4 6.43736 0 0
7:15 am 07:15 Cloudy with Mist and Fog 23 -4.8 22 -5.7 94 94 E 7 11 29.83 1010 2.5 4.02335 0 0
7:35 am 07:35 Cloudy with Mist and Fog 24 -4.7 22 -5.5 94 94 E 8 13 29.83 1010 1.75 2.816345 0 0
7:55 am 07:55 Cloudy with Mist and Fog 24 -4.6 23 -5.2 96 96 ENE 9 15 29.8 1009 1 1.60934 0 0
8:15 am 08:15 Cloudy with Mist and Fog 24 -4.6 22 -5.3 95 95 ENE 9 15 29.8 1009 0.75 1.207005 0 0
8:35 am 08:35 Cloudy with Mist and Fog 24 -4.4 23 -5.1 95 95 ENE 9 15 29.83 1010 0.75 1.207005 0 0
8:55 am 08:55 Cloudy with Freezing Fog 25 -4.1 23 -4.9 94 94 E 12 19 29.8 1009 0.25 0.402335 0 0
9:15 am 09:15 Cloudy with Freezing Fog 25 -4 24 -4.7 95 95 E 10 17 29.8 1009 0.25 0.402335 0 0
9:35 am 09:35 Cloudy with Freezing Fog 25 -3.8 24 -4.5 95 95 E 8 13 29.77 1008 0.25 0.402335 0 0
9:55 am 09:55 Cloudy with Freezing Fog 26 -3.5 25 -4.1 96 96 E 9 15 29.77 1008 0.25 0.402335 0 0
10:15 am 10:15 Cloudy with Freezing Fog 26 -3.5 25 -4 96 96 E 9 15 29.77 1008 0.5 0.80467 0 0
10:35 am 10:35 Cloudy with Freezing Fog 26 -3.3 25 -4 95 95 E 12 19 29.74 1007 0.5 0.80467 0 0
10:55 am 10:55 Cloudy with Mist and Fog 26 -3.2 25 -3.8 96 96 E 12 19 29.74 1007 0.75 1.207005 0 0
11:15 am 11:15 Cloudy with Mist and Fog 26 -3.1 25 -3.7 96 96 E 9 15 29.74 1007 0.75 1.207005 0 0
11:35 am 11:35 Cloudy with Mist and Fog 27 -3 26 -3.6 96 96 ENE 13 20 29.71 1006 1 1.60934 0 0
11:55 am 11:55 Cloudy with Mist and Fog 25 -3.8 24 -4.5 95 95 E 12 19 29.65 1004 1 1.60934 0 0
12:15 pm 12:15 Cloudy with Mist and Fog 25 -3.8 24 -4.5 95 95 E 9 15 29.65 1004 0.75 1.207005 0 0
12:35 pm 12:35 Cloudy with Mist and Fog 25 -3.8 24 -4.5 95 95 E 7 11 29.65 1004 0.75 1.207005 0 0
12:55 pm 12:55 Cloudy with Mist and Fog 25 -3.7 24 -4.5 94 94 ENE 9 15 29.65 1004 0.75 1.207005 0 0
1:15 pm 13:15 Cloudy with Mist and Fog 25 -3.7 24 -4.5 94 94 E 6 9 29.65 1004 0.75 1.207005 0 0
1:35 pm 13:35 Cloudy with Mist and Fog 25 -3.7 24 -4.5 94 94 NE 7 11 29.65 1004 1 1.60934 0 0
1:55 pm 13:55 Cloudy with Mist and Fog 26 -3.6 24 -4.3 95 95 NE 8 13 29.65 1004 1 1.60934 0 0
2:15 pm 14:15 Cloudy with Mist and Fog 26 -3.6 24 -4.2 96 96 NNE 7 11 29.65 1004 1.5 2.41401 0 0
2:35 pm 14:35 Cloudy with Mist and Fog 26 -3.6 24 -4.4 94 94 NE 8 13 29.65 1004 1.75 2.816345 0 0
2:55 pm 14:55 Cloudy with Mist and Fog 26 -3.5 24 -4.2 95 95 NE 8 13 29.62 1003 1.75 2.816345 0 0
3:15 pm 15:15 Cloudy with Mist and Fog 26 -3.6 24 -4.4 94 94 NNE 9 15 29.62 1003 1.5 2.41401 0 0
3:35 pm 15:35 Cloudy with Mist and Fog 25 -3.7 24 -4.5 94 94 NNE 10 17 29.62 1003 1.75 2.816345 0 0
3:55 pm 15:55 Cloudy with Mist and Fog 25 -3.7 24 -4.5 94 94 NNE 12 19 29.65 1004 2 3.21868 0 0
4:15 pm 16:15 Cloudy with Mist and Fog 25 -3.9 24 -4.5 96 96 NNE 10 17 29.65 1004 1.75 2.816345 0 0
4:35 pm 16:35 Cloudy with Mist and Fog 25 -4.1 23 -4.8 95 95 NNE 8 13 29.65 1004 3 4.82802 0 0
4:55 pm 16:55 Cloudy with Mist and Fog 25 -4.1 23 -4.8 95 95 N 9 15 29.68 1005 4 6.43736 0 0
5:15 pm 17:15 Cloudy with Mist and Fog 24 -4.3 23 -5 95 95 NNE 12 19 29.68 1005 3 4.82802 0 0
5:35 pm 17:35 Cloudy with Mist and Fog 24 -4.5 23 -5.2 95 95 NNE 10 17 29.71 1006 4 6.43736 0 0
5:55 pm 17:55 Cloudy with Mist and Fog 20 -6.4 19 -7.2 94 94 N 13 20 29.71 1006 4 6.43736 0 0
6:15 pm 18:15 Cloudy with Mist and Fog 20 -6.8 18 -7.6 94 94 N 13 20 29.71 1006 4 6.43736 0 0
6:35 pm 18:35 Cloudy with Mist and Fog 19 -7 18 -7.9 93 93 N 12 19 29.74 1007 5 8.0467 0 0
6:55 pm 18:55 Cloudy with Mist and Fog 19 -7.1 18 -8 93 93 N 14 22 29.77 1008 5 8.0467 0 0
7:15 pm 19:15 Cloudy 19 -7.5 17 -8.5 93 93 N 14 22 29.74 1007 7 11.26538 0 0
7:35 pm 19:35 Cloudy 19 -7.5 17 -8.5 93 93 N 16 26 29.77 1008 7 11.26538 0 0
7:55 pm 19:55 Cloudy 18 -7.6 17 -8.6 93 93 N 12 19 29.77 1008 7 11.26538 0 0
8:15 pm 20:15 Cloudy 18 -7.8 16 -8.8 93 93 N 13 20 29.77 1008 7 11.26538 0 0
8:35 pm 20:35 Cloudy 18 -8 16 -9 93 93 N 10 17 29.8 1009 7 11.26538 0 0
8:55 pm 20:55 Cloudy 17 -8.2 15 -9.2 93 93 N 13 20 29.8 1009 7 11.26538 0 0
9:15 pm 21:15 Cloudy 17 -8.5 15 -9.5 93 93 N 16 26 29.8 1009 7 11.26538 0 0
9:35 pm 21:35 Cloudy 16 -8.7 14 -9.9 91 91 N 14 22 29.8 1009 10 16.0934 0 0
9:55 pm 21:55 Cloudy 16 -9.1 13 -10.3 91 91 N 15 24 29.8 1009 10 16.0934 0 0
10:15 pm 22:15 Cloudy 15 -9.7 12 -11 90 90 N 13 20 29.85 1011 10 16.0934 0 0
10:35 pm 22:35 Cloudy 14 -10.1 12 -11.3 91 91 N 12 19 29.88 1012 10 16.0934 0 0
10:55 pm 22:55 Cloudy with Light Snow 13 -10.5 11 -11.8 90 90 N 13 20 29.91 1013 10 16.0934 0 0
11:15 pm 23:15 Cloudy with Light Snow 13 -10.5 11 -11.8 90 90 N 14 22 29.91 1013 10 16.0934 0 0
11:35 pm 23:35 Cloudy with Light Snow 13 -10.5 10 -12 89 89 N 14 22 29.94 1014 10 16.0934 0 0
11:55 pm 23:55 Cloudy with Light Snow 13 -10.6 10 -12.1 89 89 N 15 24 29.94 1014 10 16.0934 0 0

Powered by AerisWeather